#Datum;Uhrzeit;WR;Pac;DaySum;Status;WR;Pac;DaySum;Status;Pdc1;Udc;Temp;WR;Pac;DaySum;Status;Pdc1;Udc;Temp;WR;Pac;DaySum;Status;Pdc1;Udc;Temp;WR;Pac;DaySum;Status;Pdc1;Pdc2;Udc1;Udc2;Temp;WR;Pac;DaySum;Status;Pdc1;Pdc2;Udc1;Udc2;Temp;WR;Pac;DaySum;Status;Pdc1;Udc;Temp;WR;Pac;DaySum;Status;Pdc1;Udc;Temp;WR;Pac;DaySum;Status;Pdc1;Udc;Temp
14.02.18;23:55:00;1;210;20263;0;2;0;13141;0;0;0;0;3;0;8364;0;0;0;0;4;0;11379;0;0;0;0;5;0;27923;0;0;0;0;0;0;6;0;21168;0;0;0;0;0;0;7;0;18344;0;0;0;0;8;0;18142;0;0;0;0;9;0;9848;0;0;0;0
14.02.18;23:50:00;1;241;20245;0;2;0;13141;0;0;0;0;3;0;8364;0;0;0;0;4;0;11379;0;0;0;0;5;0;27923;0;0;0;0;0;0;6;0;21168;0;0;0;0;0;0;7;0;18344;0;0;0;0;8;0;18142;0;0;0;0;9;0;9848;0;0;0;0
14.02.18;23:45:00;1;446;20217;0;2;0;13141;0;0;0;0;3;0;8364;0;0;0;0;4;0;11379;0;0;0;0;5;0;27923;0;0;0;0;0;0;6;0;21168;0;0;0;0;0;0;7;0;18344;0;0;0;0;8;0;18142;0;0;0;0;9;0;9848;0;0;0;0
14.02.18;23:40:00;1;212;20175;0;2;0;13141;0;0;0;0;3;0;8364;0;0;0;0;4;0;11379;0;0;0;0;5;0;27923;0;0;0;0;0;0;6;0;21168;0;0;0;0;0;0;7;0;18344;0;0;0;0;8;0;18142;0;0;0;0;9;0;9848;0;0;0;0
14.02.18;23:35:00;1;200;20157;0;2;0;13141;0;0;0;0;3;0;8364;0;0;0;0;4;0;11379;0;0;0;0;5;0;27923;0;0;0;0;0;0;6;0;21168;0;0;0;0;0;0;7;0;18344;0;0;0;0;8;0;18142;0;0;0;0;9;0;9848;0;0;0;0
14.02.18;23:30:00;1;201;20140;0;2;0;13141;0;0;0;0;3;0;8364;0;0;0;0;4;0;11379;0;0;0;0;5;0;27923;0;0;0;0;0;0;6;0;21168;0;0;0;0;0;0;7;0;18344;0;0;0;0;8;0;18142;0;0;0;0;9;0;9848;0;0;0;0
14.02.18;23:25:00;1;602;20123;0;2;0;13141;0;0;0;0;3;0;8364;0;0;0;0;4;0;11379;0;0;0;0;5;0;27923;0;0;0;0;0;0;6;0;21168;0;0;0;0;0;0;7;0;18344;0;0;0;0;8;0;18142;0;0;0;0;9;0;9848;0;0;0;0
14.02.18;23:20:00;1;201;20078;0;2;0;13141;0;0;0;0;3;0;8364;0;0;0;0;4;0;11379;0;0;0;0;5;0;27923;0;0;0;0;0;0;6;0;21168;0;0;0;0;0;0;7;0;18344;0;0;0;0;8;0;18142;0;0;0;0;9;0;9848;0;0;0;0
14.02.18;23:15:00;1;256;20061;0;2;0;13141;0;0;0;0;3;0;8364;0;0;0;0;4;0;11379;0;0;0;0;5;0;27923;0;0;0;0;0;0;6;0;21168;0;0;0;0;0;0;7;0;18344;0;0;0;0;8;0;18142;0;0;0;0;9;0;9848;0;0;0;0
14.02.18;23:10:00;1;266;20040;0;2;0;13141;0;0;0;0;3;0;8364;0;0;0;0;4;0;11379;0;0;0;0;5;0;27923;0;0;0;0;0;0;6;0;21168;0;0;0;0;0;0;7;0;18344;0;0;0;0;8;0;18142;0;0;0;0;9;0;9848;0;0;0;0
14.02.18;23:05:00;1;468;20018;0;2;0;13141;0;0;0;0;3;0;8364;0;0;0;0;4;0;11379;0;0;0;0;5;0;27923;0;0;0;0;0;0;6;0;21168;0;0;0;0;0;0;7;0;18344;0;0;0;0;8;0;18142;0;0;0;0;9;0;9848;0;0;0;0
14.02.18;23:00:00;1;309;19966;0;2;0;13141;0;0;0;0;3;0;8364;0;0;0;0;4;0;11379;0;0;0;0;5;0;27923;0;0;0;0;0;0;6;0;21168;0;0;0;0;0;0;7;0;18344;0;0;0;0;8;0;18142;0;0;0;0;9;0;9848;0;0;0;0
14.02.18;22:55:00;1;311;19941;0;2;0;13141;0;0;0;0;3;0;8364;0;0;0;0;4;0;11379;0;0;0;0;5;0;27923;2;0;0;0;0;0;6;0;21168;2;0;0;0;0;0;7;0;18344;0;0;0;0;8;0;18142;0;0;0;0;9;0;9848;0;0;0;0
14.02.18;22:50:00;1;323;19915;0;2;0;13141;0;0;0;0;3;0;8364;0;0;0;0;4;0;11379;0;0;0;0;5;0;27923;2;0;0;0;0;0;6;0;21168;2;0;0;0;0;0;7;0;18344;0;0;0;0;8;0;18142;0;0;0;0;9;0;9848;0;0;0;0
14.02.18;22:45:00;1;269;19889;0;2;0;13141;0;0;0;0;3;0;8364;0;0;0;0;4;0;11379;0;0;0;0;5;0;27923;2;0;0;0;0;0;6;0;21168;2;0;0;0;0;0;7;0;18344;0;0;0;0;8;0;18142;0;0;0;0;9;0;9848;0;0;0;0
14.02.18;22:40:00;1;647;19867;0;2;0;13141;0;0;0;0;3;0;8364;0;0;0;0;4;0;11379;0;0;0;0;5;0;27923;2;0;0;0;0;0;6;0;21168;2;0;0;0;0;0;7;0;18344;0;0;0;0;8;0;18142;0;0;0;0;9;0;9848;0;0;0;0
14.02.18;22:35:00;1;326;19814;0;2;0;13141;0;0;0;0;3;0;8364;0;0;0;0;4;0;11379;0;0;0;0;5;0;27923;2;0;0;0;0;0;6;0;21168;2;0;0;0;0;0;7;0;18344;0;0;0;0;8;0;18142;0;0;0;0;9;0;9848;0;0;0;0
14.02.18;22:30:00;1;440;19790;0;2;0;13141;0;0;0;0;3;0;8364;0;0;0;0;4;0;11379;0;0;0;0;5;0;27923;2;0;0;0;0;0;6;0;21168;2;0;0;0;0;0;7;0;18344;0;0;0;0;8;0;18142;0;0;0;0;9;0;9848;0;0;0;0
14.02.18;22:25:00;1;431;19754;0;2;0;13141;0;0;0;0;3;0;8364;0;0;0;0;4;0;11379;0;0;0;0;5;0;27923;2;0;0;0;0;0;6;0;21168;2;0;0;0;0;0;7;0;18344;0;0;0;0;8;0;18142;0;0;0;0;9;0;9848;0;0;0;0
14.02.18;22:20:00;1;599;19718;0;2;0;13141;0;0;0;0;3;0;8364;0;0;0;0;4;0;11379;0;0;0;0;5;0;27923;2;0;0;0;0;0;6;0;21168;2;0;0;0;0;0;7;0;18344;0;0;0;0;8;0;18142;0;0;0;0;9;0;9848;0;0;0;0
14.02.18;22:15:00;1;404;19655;0;2;0;13141;0;0;0;0;3;0;8364;0;0;0;0;4;0;11379;0;0;0;0;5;0;27923;2;0;0;0;0;0;6;0;21168;2;0;0;0;0;0;7;0;18344;0;0;0;0;8;0;18142;0;0;0;0;9;0;9848;0;0;0;0
14.02.18;22:10:00;1;417;19621;0;2;0;13141;0;0;0;0;3;0;8364;0;0;0;0;4;0;11379;0;0;0;0;5;0;27923;2;0;0;0;0;0;6;0;21168;2;0;0;0;0;0;7;0;18344;0;0;0;0;8;0;18142;0;0;0;0;9;0;9848;0;0;0;0
14.02.18;22:05:00;1;455;19586;0;2;0;13141;0;0;0;0;3;0;8364;0;0;0;0;4;0;11379;0;0;0;0;5;0;27923;2;0;0;0;0;0;6;0;21168;2;0;0;0;0;0;7;0;18344;0;0;0;0;8;0;18142;0;0;0;0;9;0;9848;0;0;0;0
14.02.18;22:00:00;1;442;19548;0;2;0;13141;0;0;0;0;3;0;8364;0;0;0;0;4;0;11379;0;0;0;0;5;0;27923;2;0;0;0;0;0;6;0;21168;2;0;0;0;0;0;7;0;18344;0;0;0;0;8;0;18142;0;0;0;0;9;0;9848;0;0;0;0
14.02.18;21:55:00;1;461;19510;0;2;0;13141;0;0;0;0;3;0;8364;0;0;0;0;4;0;11379;0;0;0;0;5;0;27923;2;0;0;0;0;0;6;0;21168;2;0;0;0;0;0;7;0;18344;0;0;0;0;8;0;18142;0;0;0;0;9;0;9848;0;0;0;0
14.02.18;21:50:00;1;758;19454;0;2;0;13141;0;0;0;0;3;0;8364;0;0;0;0;4;0;11379;0;0;0;0;5;0;27923;2;0;0;0;0;0;6;0;21168;2;0;0;0;0;0;7;0;18344;0;0;0;0;8;0;18142;0;0;0;0;9;0;9848;0;0;0;0
14.02.18;21:45:00;1;409;19411;0;2;0;13141;0;0;0;0;3;0;8364;0;0;0;0;4;0;11379;0;0;0;0;5;0;27923;2;0;0;0;0;0;6;0;21168;2;0;0;0;0;0;7;0;18344;0;0;0;0;8;0;18142;0;0;0;0;9;0;9848;0;0;0;0
14.02.18;21:40:00;1;409;19377;0;2;0;13141;0;0;0;0;3;0;8364;0;0;0;0;4;0;11379;0;0;0;0;5;0;27923;2;0;0;0;0;0;6;0;21168;2;0;0;0;0;0;7;0;18344;0;0;0;0;8;0;18142;0;0;0;0;9;0;9848;0;0;0;0
14.02.18;21:35:00;1;405;19343;0;2;0;13141;0;0;0;0;3;0;8364;0;0;0;0;4;0;11379;0;0;0;0;5;0;27923;2;0;0;0;0;0;6;0;21168;2;0;0;0;0;0;7;0;18344;0;0;0;0;8;0;18142;0;0;0;0;9;0;9848;0;0;0;0
14.02.18;21:30:00;1;408;19309;0;2;0;13141;0;0;0;0;3;0;8364;0;0;0;0;4;0;11379;0;0;0;0;5;0;27923;2;0;0;0;0;0;6;0;21168;2;0;0;0;0;0;7;0;18344;0;0;0;0;8;0;18142;0;0;0;0;9;0;9848;0;0;0;0
14.02.18;21:25:00;1;616;19260;0;2;0;13141;0;0;0;0;3;0;8364;0;0;0;0;4;0;11379;0;0;0;0;5;0;27923;2;0;0;0;0;0;6;0;21168;2;0;0;0;0;0;7;0;18344;0;0;0;0;8;0;18142;0;0;0;0;9;0;9848;0;0;0;0
14.02.18;21:20:00;1;413;19212;0;2;0;13141;0;0;0;0;3;0;8364;0;0;0;0;4;0;11379;0;0;0;0;5;0;27923;2;0;0;0;0;0;6;0;21168;2;0;0;0;0;0;7;0;18344;0;0;0;0;8;0;18142;0;0;0;0;9;0;9848;0;0;0;0
14.02.18;21:15:00;1;433;19178;0;2;0;13141;0;0;0;0;3;0;8364;0;0;0;0;4;0;11379;0;0;0;0;5;0;27923;2;0;0;0;0;0;6;0;21168;2;0;0;0;0;0;7;0;18344;0;0;0;0;8;0;18142;0;0;0;0;9;0;9848;0;0;0;0
14.02.18;21:10:00;1;519;19140;0;2;0;13141;0;0;0;0;3;0;8364;0;0;0;0;4;0;11379;0;0;0;0;5;0;27923;2;0;0;0;0;0;6;0;21168;2;0;0;0;0;0;7;0;18344;0;0;0;0;8;0;18142;0;0;0;0;9;0;9848;0;0;0;0
14.02.18;21:05:00;1;519;19097;0;2;0;13141;0;0;0;0;3;0;8364;0;0;0;0;4;0;11379;0;0;0;0;5;0;27923;2;0;0;0;0;0;6;0;21168;2;0;0;0;0;0;7;0;18344;0;0;0;0;8;0;18142;0;0;0;0;9;0;9848;0;0;0;0
14.02.18;21:00:00;1;1056;19044;0;2;0;13141;0;0;0;0;3;0;8364;0;0;0;0;4;0;11379;0;0;0;0;5;0;27923;2;0;0;0;0;0;6;0;21168;2;0;0;0;0;0;7;0;18344;0;0;0;0;8;0;18142;0;0;0;0;9;0;9848;0;0;0;0
14.02.18;20:55:00;1;1059;18958;0;2;0;13141;0;0;0;0;3;0;8364;0;0;0;0;4;0;11379;0;0;0;0;5;0;27923;2;0;0;0;0;0;6;0;21168;2;0;0;0;0;0;7;0;18344;0;0;0;0;8;0;18142;0;0;0;0;9;0;9848;0;0;0;0
14.02.18;20:50:00;1;551;18893;0;2;0;13141;0;0;0;0;3;0;8364;0;0;0;0;4;0;11379;0;0;0;0;5;0;27923;2;0;0;0;0;0;6;0;21168;2;0;0;0;0;0;7;0;18344;0;0;0;0;8;0;18142;0;0;0;0;9;0;9848;0;0;0;0
14.02.18;20:45:00;1;509;18847;0;2;0;13141;0;0;0;0;3;0;8364;0;0;0;0;4;0;11379;0;0;0;0;5;0;27923;2;0;0;0;0;0;6;0;21168;2;0;0;0;0;0;7;0;18344;0;0;0;0;8;0;18142;0;0;0;0;9;0;9848;0;0;0;0
14.02.18;20:40:00;1;482;18804;0;2;0;13141;0;0;0;0;3;0;8364;0;0;0;0;4;0;11379;0;0;0;0;5;0;27923;2;0;0;0;0;0;6;0;21168;2;0;0;0;0;0;7;0;18344;0;0;0;0;8;0;18142;0;0;0;0;9;0;9848;0;0;0;0
14.02.18;20:35:00;1;868;18764;0;2;0;13141;0;0;0;0;3;0;8364;0;0;0;0;4;0;11379;0;0;0;0;5;0;27923;2;0;0;0;0;0;6;0;21168;2;0;0;0;0;0;7;0;18344;0;0;0;0;8;0;18142;0;0;0;0;9;0;9848;0;0;0;0
14.02.18;20:30:00;1;463;18696;0;2;0;13141;0;0;0;0;3;0;8364;0;0;0;0;4;0;11379;0;0;0;0;5;0;27923;2;0;0;0;0;0;6;0;21168;2;0;0;0;0;0;7;0;18344;0;0;0;0;8;0;18142;0;0;0;0;9;0;9848;0;0;0;0
14.02.18;20:25:00;1;799;18658;0;2;0;13141;0;0;0;0;3;0;8364;0;0;0;0;4;0;11379;0;0;0;0;5;0;27923;2;0;0;0;0;0;6;0;21168;2;0;0;0;0;0;7;0;18344;0;0;0;0;8;0;18142;0;0;0;0;9;0;9848;0;0;0;0
14.02.18;20:20:00;1;2426;18568;0;2;0;13141;0;0;0;0;3;0;8364;0;0;0;0;4;0;11379;0;0;0;0;5;0;27923;2;0;0;0;0;0;6;0;21168;2;0;0;0;0;0;7;0;18344;0;0;0;0;8;0;18142;0;0;0;0;9;0;9848;0;0;0;0
14.02.18;20:15:00;1;2480;18365;0;2;0;13141;0;0;0;0;3;0;8364;0;0;0;0;4;0;11379;0;0;0;0;5;0;27923;2;0;0;0;0;0;6;0;21168;2;0;0;0;0;0;7;0;18344;0;0;0;0;8;0;18142;0;0;0;0;9;0;9848;0;0;0;0
14.02.18;20:10:00;1;1799;18159;0;2;0;13141;0;0;0;0;3;0;8364;0;0;0;0;4;0;11379;0;0;0;0;5;0;27923;2;0;0;0;0;0;6;0;21168;2;0;0;0;0;0;7;0;18344;0;0;0;0;8;0;18142;0;0;0;0;9;0;9848;0;0;0;0
14.02.18;20:05:00;1;2284;18028;0;2;0;13141;0;0;0;0;3;0;8364;0;0;0;0;4;0;11379;0;0;0;0;5;0;27923;2;0;0;0;0;0;6;0;21168;2;0;0;0;0;0;7;0;18344;0;0;0;0;8;0;18142;0;0;0;0;9;0;9848;0;0;0;0
14.02.18;20:00:00;1;517;17843;0;2;0;13141;0;0;0;0;3;0;8364;0;0;0;0;4;0;11379;0;0;0;0;5;0;27923;2;0;0;0;0;0;6;0;21168;2;0;0;0;0;0;7;0;18344;0;0;0;0;8;0;18142;0;0;0;0;9;0;9848;0;0;0;0
14.02.18;19:55:00;1;528;17800;0;2;0;13141;0;0;0;0;3;0;8364;0;0;0;0;4;0;11379;0;0;0;0;5;0;27923;2;0;0;0;0;0;6;0;21168;2;0;0;0;0;0;7;0;18344;0;0;0;0;8;0;18142;0;0;0;0;9;0;9848;0;0;0;0
14.02.18;19:50:00;1;1595;17756;0;2;0;13141;0;0;0;0;3;0;8364;0;0;0;0;4;0;11379;0;0;0;0;5;0;27923;2;0;0;0;0;0;6;0;21168;2;0;0;0;0;0;7;0;18344;0;0;0;0;8;0;18142;0;0;0;0;9;0;9848;0;0;0;0
14.02.18;19:45:00;1;1726;17627;0;2;0;13141;0;0;0;0;3;0;8364;0;0;0;0;4;0;11379;0;0;0;0;5;0;27923;2;0;0;0;0;0;6;0;21168;2;0;0;0;0;0;7;0;18344;0;0;0;0;8;0;18142;0;0;0;0;9;0;9848;0;0;0;0
14.02.18;19:40:00;1;739;17507;0;2;0;13141;0;0;0;0;3;0;8364;0;0;0;0;4;0;11379;0;0;0;0;5;0;27923;2;0;0;0;0;0;6;0;21168;2;0;0;0;0;0;7;0;18344;0;0;0;0;8;0;18142;0;0;0;0;9;0;9848;0;0;0;0
14.02.18;19:35:00;1;2630;17429;0;2;0;13141;0;0;0;0;3;0;8364;0;0;0;0;4;0;11379;0;0;0;0;5;0;27923;2;0;0;0;0;0;6;0;21168;2;0;0;0;0;0;7;0;18344;0;0;0;0;8;0;18142;0;0;0;0;9;0;9848;0;0;0;0
14.02.18;19:30:00;1;1614;17205;0;2;0;13141;0;0;0;0;3;0;8364;0;0;0;0;4;0;11379;0;0;0;0;5;0;27923;2;0;0;0;0;0;6;0;21168;2;0;0;0;0;0;7;0;18344;0;0;0;0;8;0;18142;0;0;0;0;9;0;9848;0;0;0;0
14.02.18;19:25:00;1;1734;17094;0;2;0;13141;0;0;0;0;3;0;8364;0;0;0;0;4;0;11379;0;0;0;0;5;0;27923;2;0;0;0;0;0;6;0;21168;2;0;0;0;0;0;7;0;18344;0;0;0;0;8;0;18142;0;0;0;0;9;0;9848;0;0;0;0
14.02.18;19:20:00;1;2822;16941;0;2;0;13141;0;0;0;0;3;0;8364;0;0;0;0;4;0;11379;0;0;0;0;5;0;27923;2;0;0;0;0;0;6;0;21168;2;0;0;0;0;0;7;0;18344;0;0;0;0;8;0;18142;0;0;0;0;9;0;9848;0;0;0;0
14.02.18;19:15:00;1;1742;16703;0;2;0;13141;0;0;0;0;3;0;8364;0;0;0;0;4;0;11379;0;0;0;0;5;0;27923;2;0;0;0;0;0;6;0;21168;2;0;0;0;0;0;7;0;18344;0;0;0;0;8;0;18142;0;0;0;0;9;0;9848;0;0;0;0
14.02.18;19:10:00;1;836;16577;0;2;0;13141;0;0;0;0;3;0;8364;0;0;0;0;4;0;11379;0;0;0;0;5;0;27923;2;0;0;0;0;0;6;0;21168;2;0;0;0;0;0;7;0;18344;0;0;0;0;8;0;18142;0;0;0;0;9;0;9848;0;0;0;0
14.02.18;19:05:00;1;835;16507;0;2;0;13141;0;0;0;0;3;0;8364;0;0;0;0;4;0;11379;0;0;0;0;5;0;27923;2;0;0;0;0;0;6;0;21168;2;0;0;0;0;0;7;0;18344;0;0;0;0;8;0;18142;0;0;0;0;9;0;9848;0;0;0;0
14.02.18;19:00:00;1;826;16438;0;2;0;13141;0;0;0;0;3;0;8364;0;0;0;0;4;0;11379;0;0;0;0;5;0;27923;2;0;0;0;0;0;6;0;21168;2;0;0;0;0;0;7;0;18344;0;0;0;0;8;0;18142;0;0;0;0;9;0;9848;0;0;0;0
14.02.18;18:55:00;1;825;16369;0;2;0;13141;0;0;0;0;3;0;8364;0;0;0;0;4;0;11379;0;0;0;0;5;0;27923;2;0;0;0;0;0;6;0;21168;2;0;0;0;0;0;7;0;18344;0;0;0;0;8;0;18142;0;0;0;0;9;0;9848;0;0;0;0
14.02.18;18:50:00;1;835;16300;0;2;0;13141;0;0;0;0;3;0;8364;0;0;0;0;4;0;11379;0;0;0;0;5;0;27923;2;0;0;0;0;0;6;0;21168;2;0;0;0;0;0;7;0;18344;0;0;0;0;8;0;18142;0;0;0;0;9;0;9848;0;0;0;0
14.02.18;18:45:00;1;1976;16210;0;2;0;13141;0;0;0;0;3;0;8364;0;0;0;0;4;0;11379;0;0;0;0;5;0;27923;2;0;0;0;0;0;6;0;21168;2;0;0;0;0;0;7;0;18344;0;0;0;0;8;0;18142;0;0;0;0;9;0;9848;0;0;0;0
14.02.18;18:40:00;1;1802;16064;0;2;0;13141;0;0;0;0;3;0;8364;0;0;0;0;4;0;11379;0;0;0;0;5;0;27923;2;0;0;0;0;0;6;0;21168;2;0;0;0;0;0;7;0;18344;0;0;0;0;8;0;18142;0;0;0;0;9;0;9848;0;0;0;0
14.02.18;18:35:00;1;2416;15883;0;2;0;13141;0;0;0;0;3;0;8364;0;0;0;0;4;0;11379;0;0;0;0;5;0;27923;2;0;0;0;0;0;6;0;21168;2;0;0;0;0;0;7;0;18344;0;0;0;0;8;0;18142;0;0;0;0;9;0;9848;0;0;0;0
14.02.18;18:30:00;1;1749;15722;0;2;0;13141;0;0;0;0;3;0;8364;0;0;0;0;4;0;11379;0;0;0;0;5;0;27923;2;0;0;0;0;0;6;0;21168;2;0;0;0;0;0;7;0;18344;0;0;0;0;8;0;18142;0;0;0;0;9;0;9848;0;0;0;0
14.02.18;18:25:00;1;1785;15568;0;2;0;13141;0;0;0;0;3;0;8364;0;0;0;0;4;0;11379;0;0;0;0;5;0;27923;2;0;0;0;0;0;6;0;21168;2;0;0;0;0;0;7;0;18344;0;0;0;0;8;0;18142;0;0;0;0;9;0;9848;0;0;0;0
14.02.18;18:20:00;1;1854;15407;0;2;0;13141;0;0;0;0;3;0;8364;0;0;0;0;4;0;11379;0;0;0;0;5;0;27923;2;0;0;0;0;0;6;0;21168;2;0;0;0;0;0;7;0;18344;0;0;0;0;8;0;18142;0;0;0;0;9;0;9848;0;0;0;0
14.02.18;18:15:00;1;1891;15238;0;2;0;13141;0;0;0;0;3;0;8364;0;0;0;0;4;0;11379;0;0;0;0;5;0;27923;2;0;0;0;0;0;6;0;21168;2;0;0;0;0;0;7;0;18344;0;0;0;0;8;0;18142;0;0;0;0;9;0;9848;0;0;0;0
14.02.18;18:10:00;1;1672;15099;0;2;0;13141;0;0;0;0;3;0;8364;0;0;0;0;4;0;11379;0;0;0;0;5;0;27923;2;0;0;0;0;0;6;0;21168;2;0;0;0;0;0;7;0;18344;0;0;0;0;8;0;18142;0;0;0;0;9;0;9848;0;0;0;0
14.02.18;18:05:00;1;932;14981;0;2;0;13141;0;0;0;0;3;0;8364;0;0;0;0;4;0;11379;0;0;0;0;5;0;27923;2;0;0;0;0;0;6;0;21168;2;0;0;0;0;0;7;0;18344;0;0;0;0;8;0;18142;0;0;0;0;9;0;9848;0;0;0;0
14.02.18;18:00:00;1;1088;14904;0;2;0;13141;0;0;0;0;3;0;8364;0;0;0;0;4;0;11379;0;0;0;0;5;0;27923;2;0;0;0;0;0;6;0;21168;2;0;0;0;0;0;7;0;18344;0;0;0;0;8;0;18142;0;0;0;0;9;0;9848;0;0;0;0
14.02.18;17:55:00;1;1731;14819;0;2;0;13141;0;0;0;0;3;0;8364;0;0;0;0;4;0;11379;0;0;0;0;5;0;27923;2;0;0;0;0;0;6;0;21168;2;0;0;0;0;0;7;0;18344;0;0;0;0;8;0;18142;0;0;0;0;9;0;9848;0;0;0;0
14.02.18;17:50:00;1;983;14687;0;2;0;13141;0;0;36;1;3;0;8364;0;0;151;7;4;0;11379;0;0;0;0;5;0;27923;2;0;0;0;0;0;6;0;21168;2;0;0;0;0;0;7;0;18344;0;0;0;0;8;0;18142;0;0;0;0;9;0;9848;0;0;0;0
14.02.18;17:45:00;1;958;14603;0;2;0;13141;6;0;293;10;3;0;8364;6;0;329;13;4;0;11379;0;0;18;3;5;0;27923;2;0;0;0;0;0;6;0;21168;2;0;0;0;0;0;7;0;18344;0;0;0;0;8;0;18142;0;0;0;0;9;0;9848;0;0;0;0
14.02.18;17:40:00;1;950;14524;0;2;0;13141;6;0;353;10;3;0;8364;6;1;420;13;4;0;11379;2;0;94;9;5;0;27923;26;0;0;279;280;24;6;0;21168;1;7;1;241;260;19;7;0;18344;0;0;0;0;8;0;18142;0;0;0;0;9;0;9848;0;0;43;1
14.02.18;17:35:00;1;887;14445;0;2;0;13141;6;0;388;11;3;0;8364;6;2;467;14;4;0;11379;1;0;150;9;5;0;27923;23;0;0;415;556;24;6;0;21168;23;7;1;181;545;23;7;0;18344;6;0;296;14;8;0;18142;6;0;297;13;9;0;9848;6;0;315;9
14.02.18;17:30:00;1;945;14366;0;2;1;13141;6;11;390;11;3;1;8364;6;3;501;14;4;0;11379;1;0;205;10;5;4;27923;1;0;0;431;679;25;6;0;21168;23;7;2;360;584;24;7;0;18344;6;1;384;14;8;0;18142;6;0;399;14;9;0;9848;6;0;429;10
14.02.18;17:25:00;1;948;14286;0;2;4;13141;6;10;412;12;3;1;8364;3;11;486;14;4;0;11379;3;0;218;10;5;61;27923;1;7;6;398;632;26;6;41;21168;1;25;40;525;503;25;7;4;18344;6;8;418;15;8;0;18142;3;7;427;14;9;0;9848;4;1;469;10
14.02.18;17:20:00;1;1461;14206;0;2;31;13140;6;53;393;12;3;3;8364;6;8;539;14;4;1;11379;3;1;216;11;5;101;27917;4;26;22;387;614;26;6;72;21164;4;39;51;504;480;25;7;2;18343;6;6;481;15;8;0;18142;6;7;482;14;9;0;9848;6;4;527;10
14.02.18;17:15:00;1;1777;14078;0;2;89;13138;4;125;386;13;3;18;8363;6;31;504;14;4;27;11379;3;28;198;11;5;140;27908;4;48;40;387;614;26;6;96;21158;4;39;54;504;480;25;7;23;18343;6;42;419;15;8;13;18142;6;26;455;15;9;1;9848;6;7;545;11
14.02.18;17:10:00;1;1805;13935;0;2;139;13131;4;178;393;13;3;71;8362;4;109;446;15;4;84;11377;3;88;209;11;5;175;27896;4;67;56;387;614;26;6;124;21150;4;54;66;504;480;25;7;60;18341;4;101;445;16;8;52;18140;4;90;408;15;9;9;9848;6;16;531;11
14.02.18;17:05:00;1;2616;13788;0;2;166;13119;4;206;405;13;3;88;8356;4;127;491;15;4;113;11370;5;118;229;11;5;213;27881;4;92;81;387;614;26;6;147;21139;4;51;59;504;480;25;7;153;18336;4;184;447;16;8;75;18136;4;118;419;15;9;6;9847;6;12;562;11
14.02.18;17:00:00;1;1249;13562;0;2;173;13105;4;215;406;14;3;93;8349;4;133;487;15;4;118;11360;5;123;230;11;5;235;27863;4;103;89;387;614;27;6;167;21126;4;79;93;504;480;25;7;161;18324;4;194;399;16;8;98;18130;4;129;375;16;9;7;9847;6;11;570;12
14.02.18;16:55:00;1;1647;13457;0;2;195;13091;4;237;397;14;3;105;8341;4;148;548;16;4;129;11350;5;134;231;12;5;273;27843;4;117;106;387;614;27;6;194;21112;4;95;107;504;480;26;7;185;18310;4;228;457;16;8;127;18122;4;159;428;16;9;8;9846;4;14;567;12
14.02.18;16:50:00;1;2719;13299;0;2;222;13075;4;264;400;14;3;123;8332;4;167;545;16;4;150;11340;5;156;232;12;5;307;27820;4;143;118;387;614;27;6;221;21096;4;79;90;504;480;26;7;236;18295;4;280;479;17;8;156;18111;4;193;453;16;9;21;9845;6;32;567;12
14.02.18;16:45:00;1;2674;13073;0;2;188;13056;4;229;392;15;3;106;8322;4;150;529;16;4;112;11327;5;117;227;12;5;325;27794;4;152;123;387;614;27;6;226;21078;4;115;123;504;480;26;7;170;18275;4;209;446;17;8;154;18098;4;190;439;17;9;75;9843;4;106;477;13
14.02.18;16:40:00;1;2695;12847;0;2;245;13040;4;289;408;15;3;141;8313;4;185;514;16;4;151;11318;5;158;229;13;5;399;27767;4;190;161;400;614;27;6;285;21059;4;108;115;517;510;26;7;238;18261;4;288;472;18;8;219;18086;4;261;468;17;9;100;9837;4;132;517;13
14.02.18;16:35:00;1;996;12624;0;2;352;13020;4;401;417;16;3;196;8301;4;243;513;17;4;235;11306;5;245;241;13;5;493;27733;4;240;198;421;614;27;6;372;21034;4;170;186;580;570;26;7;442;18242;4;490;487;18;8;346;18068;4;392;499;17;9;121;9829;4;156;526;14
14.02.18;16:30:00;1;898;12538;0;2;382;12991;4;430;410;16;3;233;8285;4;279;529;17;4;256;11286;5;266;239;13;5;568;27693;4;280;228;416;639;28;6;432;21003;4;204;215;596;575;26;7;416;18205;4;456;461;18;8;373;18039;4;423;491;18;9;161;9819;4;196;543;14
14.02.18;16:25:00;1;741;12465;0;2;509;12959;4;563;414;17;3;313;8266;4;364;520;17;4;376;11265;5;391;244;14;5;822;27644;4;403;337;424;701;28;6;615;20966;4;301;310;600;581;26;7;564;18171;4;614;474;18;8;540;18008;4;590;486;18;9;245;9805;4;284;543;15
14.02.18;16:20:00;1;740;12403;0;2;542;12917;4;595;420;17;3;334;8240;4;384;544;17;4;404;11234;5;421;250;14;5;854;27575;4;429;356;421;700;28;6;652;20914;4;335;341;606;583;26;7;665;18125;4;707;485;19;8;630;17964;4;678;490;18;9;268;9785;4;309;556;15
14.02.18;16:15:00;1;738;12341;0;2;431;12872;4;482;414;18;3;267;8212;4;314;532;18;4;313;11200;5;326;241;14;5;727;27503;4;354;296;420;660;28;6;547;20860;4;255;271;597;580;27;7;518;18069;4;565;468;19;8;506;17911;4;549;485;19;9;236;9763;4;277;519;16
14.02.18;16:10:00;1;764;12280;0;2;436;12836;4;489;411;19;3;271;8189;4;319;528;18;4;326;11174;5;339;241;15;5;750;27443;4;366;313;422;664;29;6;572;20814;4;288;301;600;579;27;7;527;18025;4;574;477;20;8;518;17868;4;565;470;19;9;263;9743;4;303;527;16
14.02.18;16:05:00;1;800;12217;0;2;442;12799;4;495;411;19;3;274;8167;4;327;516;18;4;337;11146;5;350;241;15;5;764;27380;4;383;319;415;657;29;6;578;20766;4;297;312;578;571;27;7;531;17981;4;581;471;20;8;526;17825;4;575;475;20;9;271;9721;4;313;535;17
14.02.18;16:00:00;1;743;12151;0;2;426;12762;4;477;402;21;3;265;8144;4;312;521;19;4;326;11118;5;339;237;16;5;739;27316;4;367;307;415;644;30;6;560;20718;4;265;274;581;570;27;7;506;17937;4;551;465;21;8;504;17781;4;550;468;20;9;261;9698;4;303;523;17
14.02.18;15:55:00;1;777;12089;0;2;448;12727;4;498;400;22;3;272;8122;4;319;483;19;4;358;11091;5;373;235;16;5;808;27254;4;400;337;419;640;30;6;614;20671;4;313;327;572;569;28;7;500;17894;4;543;443;22;8;501;17739;4;544;457;21;9;260;9677;4;300;515;18
14.02.18;15:50:00;1;791;12023;0;2;1415;12689;4;1501;390;25;3;785;8099;4;844;419;20;4;864;11062;5;900;247;17;5;2135;27186;4;1126;931;424;673;30;6;1583;20619;4;818;808;598;577;28;7;2104;17852;4;2214;478;22;8;2041;17697;4;2144;469;22;9;1027;9655;4;1102;527;20
14.02.18;15:45:00;1;1272;11957;0;2;2763;12577;4;2904;395;26;3;1542;8037;4;1626;425;21;4;1544;10993;5;1608;254;18;5;3992;26998;4;2160;1761;430;690;30;6;3017;20480;4;1577;1529;597;569;28;7;3615;17687;4;3782;474;22;8;3551;17537;4;3715;473;22;9;1923;9574;4;2036;528;21
14.02.18;15:40:00;1;1560;11841;0;2;3189;12350;4;3348;392;26;3;1774;7910;4;1869;429;21;4;1927;10866;5;2007;257;18;5;4821;26660;4;2630;2142;431;693;30;6;3649;20225;4;1883;1821;599;575;27;7;3953;17391;4;4143;475;22;8;3894;17246;4;4080;472;21;9;2129;9417;4;2251;527;21
14.02.18;15:35:00;1;762;11715;0;2;3268;12085;4;3433;395;26;3;1822;7763;4;1917;425;21;4;1964;10706;5;2046;256;17;5;5074;26256;4;2761;2256;434;692;30;6;3858;19920;4;1990;1920;600;577;27;7;4064;17059;4;4248;474;21;8;3999;16920;4;4181;472;21;9;2190;9239;4;2314;523;21
14.02.18;15:30:00;1;774;11650;0;2;3223;11812;4;3386;405;25;3;1776;7611;4;1870;429;21;4;1847;10542;5;1924;261;17;5;4996;25834;4;2721;2219;433;695;29;6;3788;19599;4;1974;1901;603;578;27;7;3974;16720;4;4163;474;21;8;3923;16586;4;4113;478;21;9;2143;9056;4;2265;528;21
14.02.18;15:25:00;1;824;11585;0;2;3322;11545;4;3481;405;25;3;1822;7463;4;1920;431;20;4;1863;10388;5;1941;257;17;5;5156;25418;4;2813;2289;439;700;29;6;3915;19282;4;2038;1970;608;580;27;7;4148;16389;4;4344;477;21;8;4092;16262;4;4282;476;20;9;2230;8879;4;2358;530;20
14.02.18;15:20:00;1;821;11516;0;2;3235;11268;4;3399;410;24;3;1780;7311;4;1873;439;20;4;1796;10233;5;1870;248;17;5;5020;24988;4;2725;2233;441;709;29;6;3819;18956;4;1979;1916;608;587;27;7;4182;16044;4;4378;478;20;8;4121;15919;4;4310;478;20;9;2244;8692;4;2372;527;20
14.02.18;15:15:00;1;817;11447;0;2;3187;10997;4;3349;421;23;3;1725;7162;4;1819;437;20;4;1771;10083;5;1845;251;17;5;4928;24571;4;2686;2183;441;709;29;6;3742;18639;4;1943;1877;613;588;26;7;4194;15699;4;4389;487;20;8;4127;15578;4;4317;485;20;9;2251;8506;4;2378;536;19
14.02.18;15:10:00;1;819;11379;0;2;3148;10733;4;3313;426;21;3;1714;7018;4;1809;443;19;4;1809;9936;5;1884;254;16;5;4957;24161;4;2687;2202;447;716;28;6;3761;18327;4;1958;1862;619;597;26;7;4159;15349;4;4358;499;19;8;4097;15236;4;4295;495;19;9;2244;8319;4;2370;544;18
14.02.18;15:05:00;1;832;11311;0;2;1789;10469;4;1894;421;19;3;951;6875;4;1026;526;19;4;1276;9785;5;1329;252;16;5;3574;23746;4;1921;1567;448;717;28;6;2747;18013;4;1419;1393;620;590;26;7;2299;14999;4;2420;506;20;8;2249;14890;4;2369;496;19;9;1225;8130;4;1315;552;17
14.02.18;15:00:00;1;2329;11242;0;2;1075;10310;4;1148;414;19;3;662;6790;4;725;530;19;4;815;9675;5;849;247;16;5;1856;23466;4;966;797;430;713;29;6;1417;17798;4;711;707;603;578;26;7;1283;14793;4;1351;490;20;8;1261;14689;4;1337;484;19;9;671;8021;4;735;538;17
14.02.18;14:55:00;1;2923;11027;0;2;1932;10221;4;2043;424;21;3;1177;6735;4;1261;520;20;4;1269;9607;5;1322;251;17;5;2933;23313;4;1571;1292;437;706;29;6;2132;17681;4;1097;1063;607;581;26;7;2815;14685;4;2963;490;20;8;2739;14582;4;2874;492;19;9;1460;7964;4;1558;545;18
14.02.18;14:50:00;1;2533;10785;0;2;2353;10067;4;2479;422;20;3;1489;6641;4;1587;533;19;4;1716;9504;5;1788;256;17;5;4008;23053;4;2158;1771;444;707;29;6;3138;17490;4;1623;1593;613;598;26;7;2841;14465;4;2976;495;20;8;2822;14367;4;2962;501;19;9;1562;7850;4;1661;543;18
14.02.18;14:45:00;1;579;10604;0;2;1586;9866;4;1679;416;20;3;1025;6513;4;1107;534;19;4;1168;9359;5;1216;250;17;5;2326;22727;4;1219;1015;433;698;29;6;1714;17239;4;878;861;607;582;26;7;1943;14219;4;2038;491;20;8;1848;14124;4;1943;486;19;9;968;7715;4;1042;538;18
14.02.18;14:40:00;1;579;10555;0;2;2385;9736;4;2517;426;20;3;1530;6429;4;1631;539;20;4;1817;9260;5;1893;255;17;5;3988;22530;4;2162;1755;438;696;29;6;2961;17089;4;1525;1471;613;588;26;7;3466;14057;4;3631;491;20;8;3464;13968;4;3631;496;19;9;1864;7633;4;1974;547;18
14.02.18;14:35:00;1;573;10507;0;2;1751;9544;4;1849;424;19;3;1151;6306;4;1237;539;19;4;1499;9113;5;1561;251;17;5;3445;22190;4;1865;1507;439;724;29;6;2611;16837;4;1350;1309;610;586;26;7;2787;13776;4;2927;499;20;8;2792;13686;4;2931;500;19;9;1536;7480;4;1633;545;17
14.02.18;14:30:00;1;572;10458;0;2;1394;9396;4;1481;423;19;3;893;6208;4;967;534;19;4;1181;8984;5;1231;248;17;5;2573;21931;4;1370;1126;435;705;29;6;1961;16639;4;1021;996;606;581;27;7;1893;13543;4;1993;492;20;8;1867;13452;4;1963;491;19;9;1006;7352;4;1080;547;17